FDX1178 -KEWR

Flight info

Callsign FDX1178
Flight time N/A
Altitude
Route
Aircraft

Departure

Time N/A
Airport -

Arrival

Time 2026-04-21 01:37
Airport Newark Liberty International Airport (KEWR)
Time Latitude Longitude Altitude Speed Heading
2026-04-21 01:25 40.76466 -74.69375 7286 ft 339 kts 109°
2026-04-21 01:25 40.75652 -74.66446 7285 ft 340 kts 109°
2026-04-21 01:25 40.74835 -74.63508 7283 ft 341 kts 109°
2026-04-21 01:26 40.74018 -74.60580 7307 ft 341 kts 109°
2026-04-21 01:26 40.73214 -74.57697 7285 ft 339 kts 109°
2026-04-21 01:26 40.72401 -74.54790 7282 ft 336 kts 109°
2026-04-21 01:26 40.71601 -74.51931 7266 ft 321 kts 109°
2026-04-21 01:27 40.70854 -74.49279 7267 ft 295 kts 109°
2026-04-21 01:27 40.70003 -74.46900 7268 ft 284 kts 119°
2026-04-21 01:27 40.68891 -74.44777 6815 ft 282 kts 131°
2026-04-21 01:27 40.67329 -74.43260 6371 ft 278 kts 158°
2026-04-21 01:28 40.65506 -74.42492 5964 ft 276 kts 167°
2026-04-21 01:28 40.63622 -74.41875 5585 ft 280 kts 167°
2026-04-21 01:28 40.61747 -74.41277 5310 ft 275 kts 167°
2026-04-21 01:28 40.59878 -74.40681 5280 ft 277 kts 167°
2026-04-21 01:29 40.58003 -74.40086 5277 ft 278 kts 167°
2026-04-21 01:29 40.56154 -74.39496 5277 ft 277 kts 167°
2026-04-21 01:29 40.54280 -74.38899 5275 ft 277 kts 167°
2026-04-21 01:29 40.52405 -74.38301 5277 ft 277 kts 167°
2026-04-21 01:30 40.50534 -74.37704 5277 ft 275 kts 167°
2026-04-21 01:30 40.48672 -74.37112 4783 ft 276 kts 167°
2026-04-21 01:30 40.46811 -74.36523 4349 ft 273 kts 167°
2026-04-21 01:30 40.45024 -74.35753 3946 ft 271 kts 150°
2026-04-21 01:31 40.43631 -74.34105 3550 ft 271 kts 122°
2026-04-21 01:31 40.42998 -74.31844 3304 ft 261 kts 91°
2026-04-21 01:31 40.43276 -74.29532 3288 ft 257 kts 62°
2026-04-21 01:31 40.44288 -74.27658 3281 ft 250 kts 38°
2026-04-21 01:32 40.45778 -74.26565 3183 ft 246 kts 11°
2026-04-21 01:32 40.47420 -74.26345 3076 ft 239 kts 355°
2026-04-21 01:32 40.49059 -74.26673 3080 ft 234 kts 346°
2026-04-21 01:32 40.50583 -74.27097 3066 ft 210 kts 350°
2026-04-21 01:33 40.51981 -74.26933 3060 ft 201 kts 14°
2026-04-21 01:33 40.53254 -74.26306 2967 ft 191 kts 17°
2026-04-21 01:33 40.54482 -74.25707 2790 ft 183 kts 17°
2026-04-21 01:33 40.55645 -74.25081 2576 ft 181 kts 21°
2026-04-21 01:34 40.56792 -74.24267 2432 ft 192 kts 26°
2026-04-21 01:34 40.57916 -74.23449 2246 ft 176 kts 21°
2026-04-21 01:34 40.59034 -74.22800 2013 ft 178 kts 19°
2026-04-21 01:34 40.60136 -74.22149 1760 ft 168 kts 20°
2026-04-21 01:35 40.61191 -74.21546 1460 ft 167 kts 19°
2026-04-21 01:35 40.62282 -74.20921 1212 ft 174 kts 21°
2026-04-21 01:35 40.63397 -74.20189 1045 ft 181 kts 22°
2026-04-21 01:35 40.64493 -74.19495 790 ft 168 kts 20°
2026-04-21 01:36 40.65531 -74.18841 570 ft 165 kts 21°
2026-04-21 01:36 40.66613 -74.18144 375 ft 171 kts 20°
2026-04-21 01:36 40.67634 -74.17501 124 ft 153 kts 20°
2026-04-21 01:36 40.68457 -74.16984 29 ft 108 kts 26°
2026-04-21 01:37 40.68958 -74.16656 29 ft 49 kts 23°
2026-04-21 01:37 40.69220 -74.16588 31 ft 35 kts 357°
2026-04-21 01:37 40.69371 -74.16611 30 ft 8 kts 335°
2026-04-21 01:37 40.69407 -74.16650 30 ft 5 kts 315°
2026-04-21 01:38 40.69449 -74.16746 30 ft 29 kts 296°
2026-04-21 01:38 40.69515 -74.16934 29 ft 8 kts 286°
2026-04-21 01:38 40.69496 -74.16979 29 ft 12 kts 220°
2026-04-21 01:38 40.69372 -74.17063 29 ft 24 kts 206°
2026-04-21 01:39 40.69223 -74.17157 29 ft 23 kts 206°
2026-04-21 01:39 40.69083 -74.17247 28 ft 22 kts 206°
2026-04-21 01:39 40.68951 -74.17333 29 ft 20 kts 206°
2026-04-21 01:39 40.68826 -74.17409 28 ft 19 kts 203°
2026-04-21 01:40 40.68709 -74.17481 30 ft 18 kts 206°
2026-04-21 01:40 40.68604 -74.17549 30 ft 16 kts 206°
2026-04-21 01:40 40.68497 -74.17616 30 ft 20 kts 206°
2026-04-21 01:40 40.68330 -74.17724 30 ft 33 kts 206°
2026-04-21 01:41 40.68197 -74.17810 29 ft 39 kts 206°